Salinas, CA

5:01 PM PDT on June 21, 2018 (GMT -0700)
Salinas Municipal

Weather History for KSNS - September, 2017

Change the Weather History Date:

Thursday, September 14, 2017

  Actual Average Record
Temperature  
Mean Temperature 66 °F 64 °F  
Max Temperature 70 °F 74 °F 105 °F (1971)
Min Temperature 61 °F 55 °F 40 °F (1970)
Degree Days  
Heating Degree Days 0 2  
Month to date heating degree days 0 28  
Since 1 July heating degree days 91 163  
Cooling Degree Days 1 1  
Month to date cooling degree days 123 14  
Year to date cooling degree days 191 83  
Growing Degree Days 16 (Base 50)    
Moisture  
Dew Point 57 °F    
Average Humidity 75    
Maximum Humidity 93    
Minimum Humidity 57    
Precipitation  
Precipitation T in 0.01 in 0.03 in (2015)
Month to date precipitation 0.04 0.04  
Year to date precipitation 12.49 8.79  
Sea Level Pressure  
Sea Level Pressure 29.94 in    
Wind  
Wind Speed 9 mph (West)    
Max Wind Speed 17 mph    
Max Gust Speed 23 mph    
Visibility 10 miles    
Events      
T = Trace of Precipitation, MM = Missing Value Source: NWS Daily Summary

Daily Weather History Graph

Daily Weather History Graph

Search for Another Location

Airport or City:

Astronomy

Sep. 14, 2017 Rise Set
Actual Time 6:48 AM PDT 7:14 PM PDT
Civil Twilight 6:22 AM PDT 7:40 PM PDT
Nautical Twilight 5:51 AM PDT 8:11 PM PDT
Astronomical Twilight 5:20 AM PDT 8:42 PM PDT
Moon 12:56 AM PDT (9/14) 3:30 PM PDT (9/14)
Length of Visible Light 13h 18m
Length of Day
12h 26m
Waning Crescent, 33% of the Moon is Illuminated
Sep 14
Waning Crescent
Sep 19
New
Sep 27
First Quarter
Oct 5
Full
Oct 12
Last Quarter

Hourly Weather History & Observations

Time (PDT) Temp. Dew Point Humidity Pressure Visibility Wind Dir Wind Speed Gust Speed Precip Events Conditions
12:53 AM 64.9 °F 57.9 °F 78% 29.90 in 10.0 mi WNW 4.6 mph - N/A   Overcast
1:53 AM 64.0 °F 60.1 °F 87% 29.89 in 10.0 mi NW 8.1 mph - N/A   Overcast
2:36 AM 64.0 °F 60.1 °F 87% 29.86 in 10.0 mi WNW 6.9 mph - N/A   Overcast
2:53 AM 64.0 °F 59.0 °F 84% 29.89 in 10.0 mi WNW 8.1 mph - N/A   Overcast
3:53 AM 64.0 °F 60.1 °F 87% 29.89 in 10.0 mi WNW 6.9 mph - N/A   Overcast
4:26 AM 63.0 °F 60.1 °F 90% 29.87 in 10.0 mi WNW 9.2 mph - N/A   Overcast
4:53 AM 63.0 °F 60.1 °F 90% 29.91 in 10.0 mi WNW 6.9 mph - N/A   Overcast
5:53 AM 63.0 °F 60.1 °F 90% 29.92 in 10.0 mi WNW 8.1 mph - N/A   Overcast
6:53 AM 63.0 °F 59.0 °F 87% 29.93 in 10.0 mi West 6.9 mph - N/A   Overcast
7:53 AM 63.0 °F 57.9 °F 84% 29.94 in 10.0 mi WNW 3.5 mph - N/A   Overcast
8:17 AM 63.0 °F 57.9 °F 84% 29.92 in 10.0 mi Calm Calm - N/A   Overcast
8:53 AM 63.0 °F 57.9 °F 84% 29.95 in 10.0 mi SW 5.8 mph - N/A   Overcast
9:53 AM 64.0 °F 60.1 °F 87% 29.97 in 8.0 mi WSW 6.9 mph - 0.00 in   Overcast
10:53 AM 66.0 °F 57.0 °F 73% 29.97 in 9.0 mi WNW 6.9 mph - N/A   Overcast
11:53 AM 68.0 °F 55.9 °F 65% 29.97 in 9.0 mi West 10.4 mph - N/A   Overcast
12:13 PM 68.0 °F 55.9 °F 65% 29.94 in 10.0 mi West 10.4 mph - N/A   Mostly Cloudy
12:53 PM 66.9 °F 54.0 °F 63% 29.97 in 10.0 mi West 12.7 mph 21.9 mph N/A   Scattered Clouds
1:00 PM 68.0 °F 54.0 °F 61% 29.94 in 10.0 mi West 12.7 mph - N/A   Mostly Cloudy
1:27 PM 68.0 °F 55.0 °F 63% 29.94 in 10.0 mi West 10.4 mph 21.9 mph N/A   Scattered Clouds
1:53 PM 69.1 °F 54.0 °F 58% 29.96 in 10.0 mi West 11.5 mph - N/A   Scattered Clouds
2:53 PM 69.1 °F 54.0 °F 58% 29.95 in 10.0 mi West 9.2 mph 18.4 mph N/A   Clear
3:53 PM 69.1 °F 54.0 °F 58% 29.94 in 10.0 mi WNW 13.8 mph - N/A   Clear
4:53 PM 66.9 °F 54.0 °F 63% 29.95 in 10.0 mi West 12.7 mph - N/A   Partly Cloudy
5:30 PM 66.9 °F 55.0 °F 66% 29.93 in 9.0 mi WSW 13.8 mph 21.9 mph N/A   Mostly Cloudy
5:53 PM 66.0 °F 55.0 °F 68% 29.96 in 9.0 mi West 12.7 mph - N/A   Mostly Cloudy
6:53 PM 64.0 °F 55.0 °F 73% 29.96 in 9.0 mi West 9.2 mph - N/A   Mostly Cloudy
7:53 PM 63.0 °F 55.9 °F 78% 29.96 in 10.0 mi WSW 10.4 mph - N/A   Mostly Cloudy
8:53 PM 63.0 °F 55.0 °F 75% 29.98 in 10.0 mi WSW 9.2 mph - N/A   Overcast
9:53 PM 62.1 °F 55.0 °F 78% 29.99 in 10.0 mi WSW 9.2 mph - N/A   Overcast
10:53 PM 62.1 °F 55.0 °F 78% 29.99 in 10.0 mi WSW 8.1 mph - N/A   Overcast
11:53 PM 62.1 °F 55.0 °F 78% 29.99 in 10.0 mi WSW 8.1 mph - N/A   Overcast